Location: Kalberh�ni
(46.4610°N, 7.2453°E)
Time: 02:30:07
(UTC+00:00)

KORONAS-FOTON - Pass Details

Date: 20 June 2021
Orbit: 505 x 530 km, 82.4° (Epoch: 25 July)

Event Time Altitude Azimuth Distance (km) Brightness Sun altitude
Rises 20:37:24 0° 195° (SSW) 2,612 7.0 -9.6°
Reaches altitude 10° 20:39:32 10° 199° (SSW) 1,728 6.2 -9.9°
Maximum altitude 20:43:17 63° 281° (W) 574 4.2 -10.3°
Drops below altitude 10° 20:47:03 10° 3° (N) 1,733 7.2 -10.7°
Sets 20:49:12 0° 7° (N) 2,622 8.1 -10.9°
